STARLINK-35973, 66632

Orbit data source: Space-Track

STARLINK-35973, 66632 is a payload satellite owned by SpaceX/Seattle (US) in LEO that was launched on Sun, 23 Nov 2025 UTC via an FALCON 9 launch vehicle from the Air Force Western Test Range (AFWTR). Payload-class satellites include a variety of spacecraft equipped with specific instruments for various scientific and technological missions. These include communications satellites like Starlink; space stations such as the ISS; scientific satellites like the Hubble; Earth observation satellites from companies like Planet Labs, Umbra, and HawkEye 360; GPS; miniature CubeSats for education and research; and military/defense satellites.

Loading next visibility...
Identifier
66632, 2025-271R
Orbit
LEO
Country
Flag of USUS
Related business
Manufacturer
SpaceX/Seattle
Mission
Operational Commercial Communications
Bus & Motor
STARLINK V2MO, Unknown motor
Mass
575 kg wet, ~530 kg dry
Launch date (UTC)
2025-11-23 (10 months ago)
Launch vehicle
FALCON 9
Launch site
Air Force Western Test Range (AFWTR)
Object type
Payload
Rocket body
Debris
Shape & HBR
Box + 1 Pan, 17.7 m
Radar Cross Section
41.120 m², Large (>1 m²)

Expand to show TLE details & history
Last TLE update: 2 days ago

TLE from 2 days ago
0 STARLINK-35973
1 66632U 25271R   26264.40564525  .00012755  00000-0  38791-3 0  9992
2 66632  53.1597 305.7493 0001492  93.7513 266.3660 15.34406202 47557
Epoch: 2026-09-21T09:44Z
TLE epoch observation values (Epoch: 2026-09-21T09:44:07.749Z)
Latitude
-0.00004°
Longitude
159.43104°
Altitude
463.651 km
Speed
7.636 km/s
True Right ascension
20h 22m 59s
True Declination
0° 00' 00"
Sunlit
Object was in full shadow at epoch
Visualization orbit readout
Latitude
Unknown
Longitude
Unknown
Altitude
Unknown
Speed
Unknown
Apparent Right ascension
Unknown
Apparent Declination
Unknown
Sunlit
N/A
Visualization observer readout
Local Sidereal Time
16:26:20
Azimuth
Unknown
Elevation
Unknown
Doppler factor
Unknown
Orbital elements
Apogee altitude
463.962 km
Perigee altitude
461.921 km
Semi-major axis
6,841.079 km
Eccentricity
0.00015
Inclination
53.1597°
RAAN
305.7493°
Arg. of periapsis
93.7513°
True anomaly
266.34894°
Mean anomaly
266.366°
Eccentric anomaly
266.35747°
Mean motion
3.8358 °/min
Orbital period
93.85 mins
BSTAR
0.00038791
Loading maneuver chart data...
Computing Atmospheric mass density...
Loading historical data...
Loading historical data...
Loading historical data...
Loading historical data...
Loading historical data...
Loading historical data...
Loading historical data...

Documentation

Showing up to 5 results
|